#timestamp,LO_Frequency,Hit,Temp,Hum 
1479888015.9,286047053.8,N,0.0,0.0
1479888035.7,286047051.1,N,0.0,0.0
1479888055.6,286047053.7,N,0.0,0.0
1479888075.4,286047053.6,N,0.0,0.0
1479888095.2,286047054.0,N,0.0,0.0
1479888115.1,286047053.6,N,0.0,0.0
1479888116.0,286047053.6,N,0.0,0.0
1479888135.8,286047051.3,N,0.0,0.0
1479888155.7,286047051.2,N,0.0,0.0
1479888175.5,286047050.9,N,0.0,0.0
1479888195.3,286047052.1,N,0.0,0.0
1479888215.2,286047052.4,N,0.0,0.0
1479888235.9,286047052.3,N,0.0,0.0
1479888255.7,286047052.0,N,0.0,0.0
1479888275.6,286047052.3,N,0.0,0.0
1479888295.4,286047049.7,N,0.0,0.0
1479888315.3,286047052.4,N,0.0,0.0
1479888335.1,286047052.4,N,0.0,0.0
1479888336.0,286047052.4,N,0.0,0.0
1479888355.8,286047052.0,N,0.0,0.0
1479888375.7,286047049.4,N,0.0,0.0
1479888395.5,286047049.3,N,0.0,0.0
1479888415.3,286047051.9,N,0.0,0.0
1479888435.2,286047051.2,N,0.0,0.0
1479888455.0,286047051.3,N,0.0,0.0
1479888455.9,286047051.3,N,0.0,0.0
1479888475.8,286047051.4,N,0.0,0.0
1479888495.6,286047051.7,N,0.0,0.0
1479888515.4,286047052.1,N,0.0,0.0
1479888535.3,286047052.0,N,0.0,0.0
1479888555.1,286047049.7,N,0.0,0.0
1479888575.9,286047050.1,N,0.0,0.0
1479888595.7,286047050.8,N,0.0,0.0
1479888615.5,286047050.1,N,0.0,0.0
1479888635.4,286047050.1,N,0.0,0.0
1479888655.2,286047050.2,N,0.0,0.0
1479888675.0,286047050.0,N,0.0,0.0
1479888675.9,286047050.0,N,0.0,0.0
1479888695.8,286047047.8,N,0.0,0.0
1479888715.6,286047050.3,N,0.0,0.0
1479888735.5,286047047.7,N,0.0,0.0
1479888755.3,286047048.6,N,0.0,0.0
1479888775.1,286047049.0,N,0.0,0.0
1479888795.9,286047048.4,N,0.0,0.0
1479888815.7,286047047.7,N,0.0,0.0
1479888835.5,286047050.5,N,0.0,0.0
1479888855.4,286047050.1,N,0.0,0.0
1479888875.2,286047050.8,N,0.0,0.0
1479888895.1,286047049.0,N,0.0,0.0
1479888896.0,286047049.0,N,0.0,0.0
1479888915.8,286047049.0,N,0.0,0.0
1479888935.6,286047048.8,N,0.0,0.0
1479888955.5,286047049.2,N,0.0,0.0
1479888975.3,286047046.1,N,0.0,0.0
1479888995.2,286047046.6,N,0.0,0.0
1479889015.9,286047049.1,N,0.0,0.0
1479889035.7,286047046.6,N,0.0,0.0
1479889055.6,286047046.2,N,0.0,0.0
1479889075.4,286047046.5,N,0.0,0.0
1479889095.2,286047046.2,N,0.0,0.0
1479889115.1,286047046.5,N,0.0,0.0
1479889116.0,286047046.5,N,0.0,0.0
1479889135.8,286047046.4,N,0.0,0.0
1479889155.7,286047046.5,N,0.0,0.0
1479889175.5,286047046.7,N,0.0,0.0
1479889195.3,286047046.1,N,0.0,0.0
1479889215.2,286047046.3,N,0.0,0.0
1479889235.0,286047046.3,N,0.0,0.0
1479889235.9,286047046.3,N,0.0,0.0
1479889255.8,286047049.2,N,0.0,0.0
1479889275.6,286047046.4,N,0.0,0.0
1479889295.4,286047049.2,N,0.0,0.0
1479889315.3,286047049.1,N,0.0,0.0
1479889335.1,286047048.6,N,0.0,0.0
1479889355.8,286047048.7,N,0.0,0.0
1479889375.7,286047049.1,N,0.0,0.0
1479889395.5,286047049.2,N,0.0,0.0
1479889415.4,286047046.1,N,0.0,0.0
1479889435.2,286047047.8,N,0.0,0.0
1479889455.0,286047050.2,N,0.0,0.0
1479889455.9,286047050.2,N,0.0,0.0
1479889475.8,286047050.5,N,0.0,0.0
1479889495.6,286047050.7,N,0.0,0.0
1479889515.4,286047047.7,N,0.0,0.0
1479889535.3,286047050.0,N,0.0,0.0
1479889555.1,286047049.7,N,0.0,0.0
1479889575.9,286047051.8,N,0.0,0.0
1479889595.7,286047051.3,N,0.0,0.0
1479889615.5,286047051.3,N,0.0,0.0
1479889635.4,286047052.1,N,0.0,0.0
1479889655.2,286047051.1,N,0.0,0.0
1479889675.1,286047053.9,N,0.0,0.0
1479889676.0,286047053.9,N,0.0,0.0
1479889695.8,286047053.2,N,0.0,0.0
1479889715.6,286047053.8,N,0.0,0.0
1479889735.5,286047052.8,N,0.0,0.0
1479889755.3,286047053.7,N,0.0,0.0
1479889775.1,286047053.5,N,0.0,0.0
1479889795.9,286047053.3,N,0.0,0.0
1479889815.7,286047053.0,N,0.0,0.0
1479889835.6,286047052.5,N,0.0,0.0
1479889855.4,286047052.6,N,0.0,0.0
1479889875.2,286047052.6,N,0.0,0.0
1479889895.1,286047055.1,N,0.0,0.0
1479889896.0,286047055.1,N,0.0,0.0
1479889915.8,286047055.0,N,0.0,0.0
1479889935.6,286047054.7,N,0.0,0.0
1479889955.5,286047054.9,N,0.0,0.0
1479889975.3,286047055.1,N,0.0,0.0
1479889995.2,286047052.6,N,0.0,0.0
1479890015.9,286047055.4,N,0.0,0.0
1479890035.7,286047054.1,N,0.0,0.0
1479890055.6,286047056.9,N,0.0,0.0
1479890075.4,286047056.0,N,0.0,0.0
1479890095.2,286047057.0,N,0.0,0.0
1479890115.1,286047054.2,N,0.0,0.0
1479890116.0,286047054.2,N,0.0,0.0
1479890135.8,286047054.3,N,0.0,0.0
1479890155.7,286047057.2,N,0.0,0.0
1479890175.5,286047056.6,N,0.0,0.0
1479890195.3,286047057.0,N,0.0,0.0
1479890215.2,286047057.2,N,0.0,0.0
1479890235.0,286047056.4,N,0.0,0.0
1479890235.9,286047056.4,N,0.0,0.0
1479890255.8,286047057.0,N,0.0,0.0
1479890275.6,286047056.9,N,0.0,0.0
1479890295.4,286047056.6,N,0.0,0.0
1479890315.3,286047055.8,N,0.0,0.0
1479890335.1,286047055.8,N,0.0,0.0
1479890355.8,286047058.7,N,0.0,0.0
1479890375.7,286047058.6,N,0.0,0.0
1479890395.5,286047058.6,N,0.0,0.0
1479890415.4,286047058.7,N,0.0,0.0
1479890435.2,286047058.3,N,0.0,0.0
1479890455.0,286047058.6,N,0.0,0.0
1479890455.9,286047058.6,N,0.0,0.0
1479890475.8,286047060.4,N,0.0,0.0
1479890495.6,286047059.9,N,0.0,0.0
1479890515.5,286047059.4,N,0.0,0.0
1479890535.3,286047059.3,N,0.0,0.0
1479890555.1,286047059.1,N,0.0,0.0
1479890575.9,286047059.1,N,0.0,0.0
1479890595.7,286047059.0,N,0.0,0.0
1479890615.6,286047061.9,N,0.0,0.0
1479890635.4,286047061.8,N,0.0,0.0
1479890655.2,286047061.2,N,0.0,0.0
1479890675.1,286047061.6,N,0.0,0.0
1479890676.0,286047061.6,N,0.0,0.0
1479890695.8,286047059.1,N,0.0,0.0
1479890715.6,286047061.6,N,0.0,0.0
1479890735.5,286047061.2,N,0.0,0.0
1479890755.3,286047061.1,N,0.0,0.0
1479890775.2,286047060.8,N,0.0,0.0
1479890795.9,286047060.9,N,0.0,0.0
1479890815.7,286047063.2,N,0.0,0.0
1479890835.6,286047062.7,N,0.0,0.0
1479890855.4,286047065.1,N,0.0,0.0
1479890875.2,286047064.6,N,0.0,0.0
1479890895.1,286047064.5,N,0.0,0.0
1479890896.0,286047064.5,N,0.0,0.0
1479890915.8,286047063.9,N,0.0,0.0
1479890935.7,286047064.1,N,0.0,0.0
1479890955.5,286047066.4,N,0.0,0.0
1479890975.3,286047066.7,N,0.0,0.0
1479890995.2,286047063.8,N,0.0,0.0
1479891015.0,286047066.4,N,0.0,0.0
1479891015.9,286047066.4,N,0.0,0.0
1479891035.8,286047066.1,N,0.0,0.0
1479891055.6,286047066.4,N,0.0,0.0
1479891075.4,286047066.7,N,0.0,0.0
1479891095.3,286047066.5,N,0.0,0.0
1479891115.1,286047065.9,N,0.0,0.0
1479891135.8,286047065.7,N,0.0,0.0
1479891155.7,286047065.7,N,0.0,0.0
1479891175.5,286047065.3,N,0.0,0.0
1479891195.4,286047068.3,N,0.0,0.0
1479891215.2,286047067.8,N,0.0,0.0
1479891235.0,286047067.9,N,0.0,0.0
1479891235.9,286047067.9,N,0.0,0.0
1479891255.8,286047067.6,N,0.0,0.0
1479891275.6,286047067.1,N,0.0,0.0
1479891295.4,286047067.1,N,0.0,0.0
1479891315.3,286047067.9,N,0.0,0.0
1479891335.1,286047067.9,N,0.0,0.0
1479891355.9,286047068.4,N,0.0,0.0
1479891375.7,286047068.0,N,0.0,0.0
1479891395.5,286047067.7,N,0.0,0.0
1479891415.4,286047068.0,N,0.0,0.0
1479891435.2,286047068.2,N,0.0,0.0
1479891455.0,286047067.7,N,0.0,0.0
1479891456.0,286047067.7,N,0.0,0.0
1479891475.8,286047067.7,N,0.0,0.0
1479891495.6,286047067.7,N,0.0,0.0
1479891515.5,286047068.2,N,0.0,0.0
1479891535.3,286047068.2,N,0.0,0.0
1479891555.1,286047067.8,N,0.0,0.0
1479891575.9,286047067.9,N,0.0,0.0
1479891595.7,286047067.7,N,0.0,0.0
